Pierce City, MO

10:10 AM CDT on September 27, 2016 (GMT -0500)
Monett

Weather History for KHFJ - October, 2012

Change the Weather History Date:

Wednesday, October 17, 2012

  Actual Average (KJLN) Record (KJLN)
Temperature  
Mean Temperature 60 °F 60 °F  
Max Temperature 69 °F 71 °F 88 °F (1964)
Min Temperature 50 °F 48 °F 26 °F (1976)
Degree Days  
Heating Degree Days 6 7  
Month to date heating degree days 90  
Since 1 July heating degree days 132  
Cooling Degree Days 0 1  
Month to date cooling degree days 35  
Year to date cooling degree days 1677  
Growing Degree Days 10 (Base 50)    
Moisture  
Dew Point 52 °F    
Average Humidity 76    
Maximum Humidity 94    
Minimum Humidity 51    
Precipitation  
Precipitation 0.19 in 0.13 in 1.39 in (1981)
Month to date precipitation 2.21  
Year to date precipitation 38.13  
Sea Level Pressure  
Sea Level Pressure 29.58 in    
Wind  
Wind Speed 11 mph (SW)    
Max Wind Speed 22 mph    
Max Gust Speed 30 mph    
Visibility 10 miles    
Events Rain    
T = Trace of Precipitation, MM = Missing Value Source: NWS Daily Summary

Daily Weather History Graph

Daily Weather History Graph

Search for Another Location

Airport or City:

Trip Planner

Search our weather history database for the weather conditions in past years. The results will help you decide how hot, cold, wet, or windy it might be!

Date:

Astronomy

Oct. 17, 2012 Rise Set
Actual Time 7:25 AM CDT 6:36 PM CDT
Civil Twilight 6:59 AM CDT 7:02 PM CDT
Nautical Twilight 6:29 AM CDT 7:32 PM CDT
Astronomical Twilight 5:59 AM CDT 8:02 PM CDT
Moon 9:56 AM CDT (10/17) 8:17 PM CDT (10/17)
Length of Visible Light 12h 02m
Length of Day
11h 10m
Waxing Crescent, 7% of the Moon is Illuminated
Oct 17
Waxing Crescent
Oct 21
First Quarter
Oct 29
Full
Nov 6
Last Quarter
Nov 13
New

Hourly Weather History & Observations

Time (CDT) Temp. Dew Point Humidity Pressure Visibility Wind Dir Wind Speed Gust Speed Precip Events Conditions
12:15 AM 59.0 °F 46.4 °F 63% 29.62 in 10.0 mi South 12.7 mph - N/A   Clear
12:35 AM 59.0 °F 46.4 °F 63% 29.62 in 10.0 mi South 10.4 mph - N/A   Clear
12:55 AM 59.0 °F 46.4 °F 63% 29.62 in 10.0 mi South 10.4 mph - N/A   Clear
1:15 AM 59.0 °F 46.4 °F 63% 29.61 in 10.0 mi South 11.5 mph - N/A   Clear
1:35 AM 59.0 °F 48.2 °F 67% 29.60 in 10.0 mi South 11.5 mph - N/A   Clear
1:55 AM 60.8 °F 50.0 °F 68% 29.60 in 10.0 mi South 11.5 mph - N/A   Clear
2:15 AM 60.8 °F 50.0 °F 68% 29.59 in 10.0 mi South 12.7 mph 18.4 mph N/A   Clear
2:35 AM 60.8 °F 51.8 °F 72% 29.59 in 10.0 mi South 10.4 mph 17.3 mph N/A   Clear
2:55 AM 60.8 °F 51.8 °F 72% 29.57 in 10.0 mi South 12.7 mph 19.6 mph N/A   Clear
3:15 AM 60.8 °F 51.8 °F 72% 29.57 in 10.0 mi South 12.7 mph 18.4 mph N/A   Clear
3:35 AM 60.8 °F 53.6 °F 77% 29.57 in 10.0 mi South 11.5 mph 17.3 mph N/A   Clear
3:55 AM 60.8 °F 53.6 °F 77% 29.56 in 10.0 mi South 15.0 mph 20.7 mph N/A   Clear
4:15 AM 59.0 °F 53.6 °F 82% 29.55 in 10.0 mi South 13.8 mph 19.6 mph N/A   Clear
5:15 AM 60.8 °F 55.4 °F 82% 29.54 in 10.0 mi South 13.8 mph 19.6 mph N/A   Overcast
5:35 AM 60.8 °F 55.4 °F 82% 29.54 in 10.0 mi South 11.5 mph 19.6 mph N/A   Overcast
5:55 AM 60.8 °F 55.4 °F 82% 29.53 in 10.0 mi South 11.5 mph - N/A   Overcast
6:15 AM 60.8 °F 57.2 °F 88% 29.52 in 10.0 mi South 13.8 mph 18.4 mph N/A   Overcast
6:55 AM 62.6 °F 59.0 °F 88% 29.52 in 10.0 mi South 12.7 mph 18.4 mph N/A   Overcast
7:15 AM 62.6 °F 59.0 °F 88% 29.52 in 10.0 mi South 13.8 mph - N/A   Overcast
7:35 AM 62.6 °F 59.0 °F 88% 29.51 in 10.0 mi South 11.5 mph 18.4 mph N/A   Overcast
7:55 AM 62.6 °F 59.0 °F 88% 29.51 in 10.0 mi South 16.1 mph - N/A   Overcast
8:15 AM 62.6 °F 59.0 °F 88% 29.51 in 10.0 mi South 16.1 mph 23.0 mph N/A   Overcast
8:35 AM 62.6 °F 59.0 °F 88% 29.52 in 10.0 mi South 13.8 mph 19.6 mph N/A   Overcast
8:55 AM 62.6 °F 59.0 °F 88% 29.52 in 10.0 mi South 13.8 mph 23.0 mph N/A   Overcast
9:15 AM 62.6 °F 59.0 °F 88% 29.52 in 10.0 mi South 11.5 mph 18.4 mph N/A   Overcast
9:35 AM 62.6 °F 59.0 °F 88% 29.54 in 10.0 mi SSW 12.7 mph 18.4 mph N/A   Overcast
9:55 AM 62.6 °F 59.0 °F 88% 29.54 in 10.0 mi SSW 9.2 mph - N/A   Overcast
10:15 AM 62.6 °F 59.0 °F 88% 29.56 in 10.0 mi SW 6.9 mph - N/A   Overcast
10:35 AM 62.6 °F 59.0 °F 88% 29.56 in 10.0 mi SSW 8.1 mph - N/A   Drizzle
10:55 AM 62.6 °F 59.0 °F 88% 29.55 in 10.0 mi South 9.2 mph - N/A   Overcast
11:35 AM 64.4 °F 59.0 °F 83% 29.54 in 10.0 mi South 15.0 mph - N/A   Overcast
11:55 AM 64.4 °F 59.0 °F 83% 29.53 in 10.0 mi South 16.1 mph 20.7 mph N/A   Overcast
12:15 PM 66.2 °F 59.0 °F 78% 29.52 in 10.0 mi SSW 13.8 mph 20.7 mph N/A   Overcast
12:35 PM 66.2 °F 59.0 °F 78% 29.52 in 10.0 mi SSW 12.7 mph - N/A   Overcast
12:55 PM 66.2 °F 59.0 °F 78% 29.51 in 10.0 mi South 17.3 mph - N/A   Overcast
1:15 PM 68.0 °F 59.0 °F 73% 29.50 in 10.0 mi SSW 15.0 mph 20.7 mph N/A   Overcast
1:35 PM 69.8 °F 60.8 °F 73% 29.48 in 10.0 mi SSW 16.1 mph 21.9 mph N/A   Mostly Cloudy
1:55 PM 68.0 °F 59.0 °F 73% 29.49 in 10.0 mi SW 15.0 mph 25.3 mph N/A   Overcast
2:15 PM 55.4 °F 53.6 °F 94% 29.52 in 4.0 mi NNW 9.2 mph 17.3 mph 0.16 in Rain Heavy Rain
2:35 PM 59.0 °F 55.4 °F 88% 29.51 in 10.0 mi NNE 6.9 mph - 0.19 in   Overcast
2:55 PM 59.0 °F 55.4 °F 88% 29.49 in 10.0 mi East 5.8 mph - 0.19 in   Overcast
3:15 PM 60.8 °F 57.2 °F 88% 29.53 in 10.0 mi West 3.5 mph - N/A   Scattered Clouds
3:35 PM 62.6 °F 59.0 °F 88% 29.54 in 10.0 mi West 5.8 mph - N/A   Clear
3:55 PM 62.6 °F 59.0 °F 88% 29.53 in 10.0 mi WSW 5.8 mph - N/A   Clear
4:15 PM 62.6 °F 59.0 °F 88% 29.53 in 10.0 mi SW 5.8 mph - N/A Rain Light Rain
4:35 PM 62.6 °F 59.0 °F 88% 29.54 in 10.0 mi WNW 10.4 mph - N/A   Overcast
4:55 PM 62.6 °F 55.4 °F 77% 29.56 in 10.0 mi NW 21.9 mph 29.9 mph N/A   Mostly Cloudy
5:15 PM 60.8 °F 51.8 °F 72% 29.57 in 10.0 mi WNW 16.1 mph 27.6 mph N/A   Mostly Cloudy
5:35 PM 60.8 °F 51.8 °F 72% 29.58 in 10.0 mi NW 16.1 mph 26.5 mph N/A   Mostly Cloudy
5:55 PM 60.8 °F 50.0 °F 68% 29.60 in 10.0 mi NW 16.1 mph 23.0 mph N/A   Scattered Clouds
6:15 PM 60.8 °F 50.0 °F 68% 29.61 in 10.0 mi NW 9.2 mph - N/A   Clear
6:35 PM 59.0 °F 48.2 °F 67% 29.62 in 10.0 mi NW 8.1 mph - N/A   Clear
6:55 PM 57.2 °F 48.2 °F 72% 29.63 in 10.0 mi WNW 8.1 mph - N/A   Clear
7:15 PM 55.4 °F 46.4 °F 72% 29.64 in 10.0 mi WNW 5.8 mph - N/A   Clear
7:35 PM 55.4 °F 46.4 °F 72% 29.65 in 10.0 mi West 5.8 mph - N/A   Clear
7:55 PM 53.6 °F 46.4 °F 77% 29.66 in 10.0 mi West 6.9 mph - N/A   Clear
8:15 PM 55.4 °F 44.6 °F 67% 29.68 in 10.0 mi WNW 9.2 mph - N/A   Clear
8:35 PM 53.6 °F 44.6 °F 72% 29.68 in 10.0 mi WNW 8.1 mph - N/A   Clear
8:55 PM 55.4 °F 41.0 °F 58% 29.69 in 10.0 mi WNW 8.1 mph - N/A   Clear
9:35 PM 55.4 °F 37.4 °F 51% 29.71 in 10.0 mi NW 8.1 mph - N/A   Clear
9:55 PM 53.6 °F 37.4 °F 54% 29.71 in 10.0 mi NW 6.9 mph - N/A   Clear
10:15 PM 53.6 °F 37.4 °F 54% 29.72 in 10.0 mi WNW 5.8 mph - N/A   Clear
10:55 PM 51.8 °F 37.4 °F 58% 29.73 in 10.0 mi West 4.6 mph - N/A   Scattered Clouds
11:15 PM 51.8 °F 35.6 °F 54% 29.73 in 10.0 mi West 5.8 mph - N/A   Clear
11:35 PM 50.0 °F 35.6 °F 58% 29.73 in 10.0 mi West 6.9 mph - N/A   Clear
11:55 PM 50.0 °F 35.6 °F 58% 29.73 in 10.0 mi West 6.9 mph - N/A   Clear